Location: Boursonne
(49.2024°N, 3.0468°E)
Time: 04:39:51
(UTC+00:00)

Cosmos 1354 Rocket - Visible Passes

Search period start: 13 June 2021 00:00
Search period end: 23 June 2021 00:00
Orbit: 764 x 784 km, 74.0° (Epoch: 12 June)

Date Brightness Start Highest point End Pass type
(mag) Time Alt. Az. Time Alt. Az. Time Alt. Az.
13 Jun 4.9 00:46:52 10° NW 00:51:38 34° WSW 00:53:49 24° SW visible
13 Jun 5.6 22:29:18 10° N 22:33:57 29° NE 22:38:27 10° ESE visible
14 Jun 4.3 00:11:14 10° NNW 00:16:25 52° WSW 00:18:48 30° SSW visible
14 Jun 6.0 21:54:16 10° N 21:58:16 21° NE 22:02:14 10° E visible
14 Jun 4.0 23:35:46 10° NNW 23:41:07 80° WSW 23:43:50 30° SSE visible
15 Jun 6.1 01:20:15 10° WNW 01:22:23 12° W 01:24:12 11° WSW visible
15 Jun 6.3 21:19:26 10° N 21:22:29 15° NE 21:25:31 10° ENE visible
15 Jun 4.2 23:00:23 10° NNW 23:05:44 68° ENE 23:08:53 25° SE visible
16 Jun 5.6 00:43:36 10° NW 00:47:23 20° W 00:49:16 17° WSW visible
16 Jun 6.5 20:45:10 10° NNE 20:46:35 11° NE 20:48:01 10° NE visible
16 Jun 4.8 22:25:07 10° NNW 22:30:15 45° ENE 22:34:00 18° SE visible
17 Jun 5.1 00:07:38 10° NW 00:12:16 30° W 00:14:21 23° SW visible
17 Jun 5.4 21:49:57 10° N 21:54:41 31° NE 21:59:07 11° ESE visible
17 Jun 4.5 23:31:58 10° NNW 23:37:04 47° WSW 23:39:28 28° SSW visible
18 Jun 5.8 21:14:52 10° N 21:19:01 22° NE 21:23:10 10° E visible
18 Jun 4.1 22:56:27 10° NNW 23:01:48 73° WSW 23:04:37 28° S visible
19 Jun 6.2 00:41:32 10° WNW 00:42:59 11° W 00:44:25 10° WSW visible
19 Jun 6.2 20:39:58 10° N 20:43:16 16° NE 20:46:33 10° E visible
19 Jun 4.1 22:21:04 10° NNW 22:26:26 75° ENE 22:29:48 23° SSE visible
20 Jun 5.9 00:04:29 10° NW 00:07:59 18° W 00:10:10 14° SW visible
20 Jun 4.6 21:45:46 10° NNW 21:50:59 50° ENE 21:55:00 16° SE visible
20 Jun 5.4 23:28:26 10° NW 23:32:54 28° W 23:35:22 19° SW visible
21 Jun 5.2 21:10:34 10° N 21:15:26 34° NE 21:20:13 10° ESE visible
21 Jun 4.8 22:52:42 10° NW 22:57:43 43° WSW 23:00:36 23° SSW visible
22 Jun 5.6 20:35:28 10° N 20:39:47 24° NE 20:44:04 10° ESE visible
22 Jun 4.2 22:17:09 10° NNW 22:22:28 66° WSW 22:25:51 22° S visible
